Tracking 18942 objects as of 17-Jan-2018
HD Live streaming from Space Station
objects crossing your sky now

NAVSTAR 36 (USA 100)

Track NAVSTAR 36 (USA 100) now!
NAVSTAR 36 (USA 100) is classified as:


NORAD ID: 23027
Int'l Code: 1994-016A
Perigee: 19,853.0 km
Apogee: 20,525.5 km
Inclination: 54.9 °
Period: 718.0 minutes
Semi major axis: 26560 km
RCS: 2.0263 m2 (large)
Launch date: March 10, 1994
Source: United States (US)
Launch site: AIR FORCE EASTERN TEST RANGE (AFETR)
PRN:
aabbcc
Your satellite tracking list
Your tracking list is empty




NASA's NSSDC Master Catalog

Two Line Element Set (TLE):
1 23027U 94016A   18016.61267164 -.00000062  00000-0  00000+0 0  9991
2 23027  54.8793  26.4519 0126596  25.5055 114.8291  2.00564563174795
Source of the keplerian elements: AFSPC